Location: Dover
(48.8500°N, 53.9833°W)
Time: 18:33:45
(UTC+00:00)

Cosmos 2058 - Pass Details

Date: 14 November 2025
Orbit: 529 x 540 km, 82.5° (Epoch: 10 December)

Event Time Altitude Azimuth Distance (km) Brightness Sun altitude
Rises 21:13:08 0° 359° (N) 2,703 6.2 -12.6°
Reaches altitude 10° 21:15:31 10° 11° (N) 1,809 5.2 -13.0°
Maximum altitude 21:19:00 29° 72° (ENE) 1,024 3.6 -13.6°
Drops below altitude 10° 21:22:28 10° 133° (SE) 1,802 5.1 -14.1°
Sets 21:24:50 0° 145° (SE) 2,691 6.1 -14.5°
